Weather History for EGHH - January, 2014

Change the Weather History Date:

Wednesday, January 22, 2014

  Actual Average Record
Temperature  
Mean Temperature 44 °F -  
Max Temperature 52 °F 46 °F 53 °F (2012)
Min Temperature 37 °F 34 °F 24 °F (2006)
Degree Days  
Heating Degree Days 20    
Moisture  
Dew Point 42 °F    
Average Humidity 91    
Maximum Humidity 100    
Minimum Humidity 66    
Precipitation  
Precipitation 0.01 in 0.09 in - ()
Sea Level Pressure  
Sea Level Pressure 29.73 in    
Wind  
Wind Speed 7 mph ()    
Max Wind Speed 15 mph    
Max Gust Speed -    
Visibility 5.9 miles    
Events Fog , Rain    
Averages and records for this station are not official NWS values.
T = Trace of Precipitation, MM = Missing Value Source: Averaged Metar Reports

Daily Weather History Graph

Daily Weather History Graph

Search for Another Location

Airport or City:

Trip Planner

Search our weather history database for the weather conditions in past years. The results will help you decide how hot, cold, wet, or windy it might be!

Date:

Astronomy

Jan. 22, 2014 Rise Set
Actual Time 7:56 AM GMT 4:41 PM GMT
Civil Twilight 7:19 AM GMT 5:18 PM GMT
Nautical Twilight 6:39 AM GMT 5:59 PM GMT
Astronomical Twilight 6:00 AM GMT 6:38 PM GMT
Moon 11:45 PM GMT (1/22) 10:07 AM GMT (1/22)
Length of Visible Light 9h 58m
Length of Day
8h 45m
Waning Gibbous, 67% of the Moon is Illuminated
Jan 22
Waning Gibbous
Jan 24
Last Quarter
Jan 30
New
Feb 6
First Quarter
Feb 14
Full

Hourly Weather History & Observations

Time (GMT) Temp. Windchill Dew Point Humidity Pressure Visibility Wind Dir Wind Speed Gust Speed Precip Events Conditions
12:00 AM 46 °F - 45 °F 96% 29.63 in 3 mi South 12.7 mph - - Rain Heavy Rain
1:00 AM 47 °F - 46 °F 93% 29.61 in 2 mi SSE 13.8 mph - - Rain Heavy Drizzle
1:20 AM 48.2 °F - 46.4 °F 93% 29.59 in 3.7 mi South 15.0 mph - N/A   Mostly Cloudy
1:50 AM 48.2 °F - 46.4 °F 93% 29.59 in 4.3 mi South 15.0 mph - N/A   Mostly Cloudy
2:00 AM 48 °F - 47 °F 96% 29.60 in 5 mi SSW 5.8 mph - - Rain Rain
2:20 AM 46.4 °F 44.3 °F 44.6 °F 93% 29.59 in 4.3 mi West 4.6 mph - N/A   Mostly Cloudy
2:50 AM 46.4 °F 45.2 °F 44.6 °F 93% 29.59 in 5.0 mi WNW 3.5 mph - N/A   Mostly Cloudy
3:00 AM 46 °F - 45 °F 93% 29.61 in 2 mi West 3.5 mph - - Rain Light Rain Showers
3:20 AM 44.6 °F 43.1 °F 44.6 °F 100% 29.59 in - WNW 3.5 mph - N/A   Clear
4:00 AM 44 °F - 44 °F 98% 29.61 in 1 mi West 3.5 mph - - Rain Rain
4:50 AM 41.0 °F 39.0 °F 41.0 °F 100% 29.62 in 6.2 mi WNW 3.5 mph - N/A Fog Shallow Fog
5:00 AM 44 °F - 43 °F 97% 29.62 in 3 mi SW 3.5 mph - - Fog Fog
5:20 AM 41.0 °F - 41.0 °F 100% 29.62 in 6.2 mi SW 1.2 mph - N/A Fog Shallow Fog
5:50 AM 41.0 °F - 41.0 °F 100% 29.62 in 6.2 mi SSE 1.2 mph - N/A Fog Shallow Fog
6:00 AM 41 °F - 41 °F 98% 29.64 in 1 mi SSE 2.3 mph - - Fog Fog
6:20 AM 41.0 °F 39.0 °F 41.0 °F 100% 29.62 in 6.2 mi South 3.5 mph - N/A Fog Shallow Fog
6:50 AM 41.0 °F - 39.2 °F 93% 29.65 in 4.3 mi SSW 1.2 mph - N/A Fog Fog
7:00 AM 40 °F - 40 °F 99% 29.66 in 1 mi SSW 1.2 mph - - Fog Fog
7:20 AM 41.0 °F - 39.2 °F 93% 29.65 in 4.3 mi SSW 2.3 mph - N/A Fog Fog
7:50 AM 41.0 °F 39.0 °F 39.2 °F 93% 29.65 in 4.3 mi SW 3.5 mph - N/A Fog Fog
8:00 AM 40 °F - 40 °F 100% 29.68 in 4 mi SW 3.5 mph - - Fog Fog
8:20 AM 41.0 °F 39.0 °F 41.0 °F 100% 29.68 in 5.0 mi SSW 3.5 mph - N/A Fog Fog
8:50 AM 42.8 °F 40.1 °F 42.8 °F 100% 29.68 in 5.0 mi SW 4.6 mph - N/A Fog Fog
9:00 AM 42 °F - 42 °F 99% 29.70 in 4 mi SW 4.6 mph - -   Mist
9:20 AM 44.6 °F 43.1 °F 44.6 °F 100% 29.71 in 5.0 mi SSW 3.5 mph - N/A   Unknown
9:50 AM 46.4 °F 45.2 °F 44.6 °F 93% 29.71 in 5.0 mi WSW 3.5 mph - N/A   Unknown
10:00 AM 46 °F - 45 °F 96% 29.72 in 5 mi WSW 3.5 mph - -   Mist
10:20 AM 46.4 °F 42.4 °F 44.6 °F 93% 29.71 in 5.6 mi West 8.1 mph - N/A   Unknown
11:00 AM 49 °F - 45 °F 79% 29.74 in 7 mi West 8.1 mph - -  
11:20 AM 50.0 °F - 44.6 °F 82% 29.71 in 6.2 mi West 9.2 mph - N/A   Partly Cloudy
11:50 AM 50.0 °F - 44.6 °F 82% 29.71 in 6.2 mi West 8.1 mph - N/A   Partly Cloudy
12:00 PM 50 °F - 44 °F 72% 29.73 in 9 mi West 8.1 mph - -  
12:20 PM 51.8 °F - 46.4 °F 82% 29.71 in 6.2 mi WSW 8.1 mph - N/A   Scattered Clouds
12:50 PM 51.8 °F - 44.6 °F 76% 29.71 in 6.2 mi WSW 8.1 mph - N/A   Mostly Cloudy
1:00 PM 51 °F - 45 °F 74% 29.73 in 12 mi WSW 8.1 mph - -   Scattered Clouds
1:20 PM 50.0 °F - 44.6 °F 82% 29.71 in 6.2 mi West 11.5 mph - N/A   Mostly Cloudy
1:50 PM 50.0 °F - 44.6 °F 82% 29.74 in 6.2 mi West 9.2 mph - N/A   Mostly Cloudy
2:00 PM 50 °F - 44 °F 74% 29.74 in 9 mi West 9.2 mph - -   Mostly Cloudy
2:20 PM 50.0 °F - 44.6 °F 82% 29.74 in 6.2 mi WNW 5.8 mph - N/A   Scattered Clouds
2:50 PM 51.8 °F - 42.8 °F 71% 29.74 in 6.2 mi WNW 8.1 mph - N/A   Scattered Clouds
3:00 PM 51 °F - 43 °F 66% 29.75 in 11 mi WNW 8.1 mph - - Rain Rain
3:20 PM 50.0 °F - 42.8 °F 76% 29.77 in 6.2 mi WNW 10.4 mph - N/A   Mostly Cloudy
3:50 PM 46.4 °F 42.4 °F 42.8 °F 87% 29.77 in 6.2 mi West 8.1 mph - N/A   Mostly Cloudy
4:00 PM 47 °F - 43 °F 79% 29.78 in 9 mi WNW 10.4 mph - - Rain Rain Showers
4:20 PM 44.6 °F 42.2 °F 42.8 °F 93% 29.77 in 6.2 mi West 4.6 mph - N/A   Mostly Cloudy
4:50 PM 42.8 °F 39.3 °F 41.0 °F 93% 29.80 in 6.2 mi West 5.8 mph - N/A   Scattered Clouds
5:00 PM 42 °F - 40 °F 91% 29.81 in 19 mi West 5.8 mph - - Rain Rain
5:20 PM 41.0 °F 37.1 °F 41.0 °F 100% 29.80 in 6.2 mi West 5.8 mph - N/A   Partly Cloudy
5:50 PM 41.0 °F 37.1 °F 41.0 °F 100% 29.83 in - West 5.8 mph - N/A   Clear
6:00 PM 42 °F - 40 °F 92% 29.83 in 7 mi West 5.8 mph - -   Mostly Cloudy
6:20 PM 42.8 °F 40.1 °F 42.8 °F 100% 29.83 in - WNW 4.6 mph - N/A   Clear
6:50 PM 42.8 °F 38.0 °F 42.8 °F 100% 29.83 in - WNW 8.1 mph - N/A   Clear
7:00 PM 44 °F - 42 °F 90% 29.85 in 9 mi WNW 8.1 mph - -   Overcast
7:20 PM 42.8 °F 38.6 °F 41.0 °F 93% 29.86 in - West 6.9 mph - N/A   Clear
7:50 PM 41.0 °F 37.1 °F 37.4 °F 87% 29.86 in - West 5.8 mph - N/A   Clear
8:00 PM 40 °F - 38 °F 88% 29.87 in 7 mi West 5.8 mph - -   Scattered Clouds
8:20 PM 41.0 °F 38.0 °F 39.2 °F 93% 29.86 in - West 4.6 mph - N/A   Clear
8:50 PM 39.2 °F 32.5 °F 37.4 °F 93% 29.89 in - West 10.4 mph - N/A   Clear
9:00 PM 40 °F - 38 °F 91% 29.90 in 7 mi West 10.4 mph - -  
9:20 PM 39.2 °F 34.2 °F 37.4 °F 93% 29.89 in - WNW 6.9 mph - N/A   Clear
9:50 PM 39.2 °F 33.6 °F 37.4 °F 93% 29.89 in - WNW 8.1 mph - N/A   Clear
10:00 PM 40 °F - 38 °F 90% 29.91 in 8 mi WNW 8.1 mph - -  
10:20 PM 37.4 °F 32.8 °F 35.6 °F 93% 29.89 in - West 5.8 mph - N/A   Clear
10:50 PM 37.4 °F 32.1 °F 35.6 °F 93% 29.89 in - WNW 6.9 mph - N/A   Clear
11:00 PM 37 °F - 35 °F 92% 29.92 in 7 mi WNW 6.9 mph - -